Bob Sikes Airport
KCEW : now visible

Airfield :











YOU CAN JOIN US ON...

 
LOGIN :

Register | Disclaimer

   EN    FR    IT 

 









Legend :    VFR   Marginal VFR   IFR   Intensive IFR   Very Intensive IFR
Visi :
Ceiling :
>= 8 km
>= 3000ft
5 to 8 km
1000 to 3000 ft
1500m to 5 km
500 to 1000 ft
800 to 1500m
200 to 500 ft
< 800m
< 200 ft
Symbols :   Thunderstorms  Fog  Heavy snow  Heavy precipitations  Wind > 20 kt






- Airport Elevation : 213 ft


KCEW - Bob Sikes

CURRENT METAR :
  • 180453Z AUTO 00000KT 10SM CLR 24/23 A3003 RMK AO2 SLP165 T02440233

EXPIRED METARs :
  • 180353Z AUTO 00000KT 10SM OVC100 26/24 A3003 RMK AO2 SLP166 T02560239
  • 180253Z AUTO 00000KT 10SM FEW050 BKN070 OVC100 26/24 A3002 RMK AO2 RAB32E42 SLP162 P0000 60000 T02560239 51011
  • 180153Z AUTO 00000KT 10SM SCT095 26/24 A3001 RMK AO2 SLP159 T02610244
  • 180053Z AUTO 00000KT 10SM FEW065 27/25 A3000 RMK AO2 SLP155 T02720250

TAF N/A
KZJX FIR / North America



MET'MAP, your aeronautical weather chart ! - Copyright ORBIFLY December 2007 - Disclaimer

ORBIFLY MET'MAP TEAM :

Programming & Development : Alexandra Zaïnal
Original concept : Baudouin d'Aumeries
Technical & hardware support : Manuel Goepfert
Assistance : Marc-Olivier Méhu




SOURCES & CREDITS :

   NOAA       Earth
Advisory